Time,TemperatureF,DewpointF,PressureIn,WindDirection,WindDirectionDegrees,WindSpeedMPH,WindSpeedGustMPH,Humidity,HourlyPrecipIn,Conditions,Clouds,dailyrainin,SoftwareType,DateUTC
2013-03-20 00:03:00,22.0,20.0,29.95,WSW,238,0.0,1.0,91,0.00,,,0.00,,2013-03-20 04:03:00,
2013-03-20 00:12:00,22.0,20.0,29.95,WSW,238,0.0,1.0,91,0.00,,,0.00,,2013-03-20 04:12:00,
2013-03-20 00:23:00,22.0,20.0,29.95,East,99,0.0,0.0,91,0.00,,,0.00,,2013-03-20 04:23:00,
2013-03-20 00:32:00,22.0,20.0,29.94,ENE,72,0.0,0.0,91,0.00,,,0.00,,2013-03-20 04:32:00,
2013-03-20 00:43:00,22.0,20.0,29.94,ENE,72,0.0,0.0,91,0.00,,,0.00,,2013-03-20 04:43:00,
2013-03-20 00:52:00,22.0,20.0,29.93,ENE,72,0.0,0.0,92,0.00,,,0.00,,2013-03-20 04:52:00,
2013-03-20 01:03:00,22.0,20.0,29.93,ENE,64,0.0,0.0,92,0.00,,,0.00,,2013-03-20 05:03:00,
2013-03-20 01:13:00,22.0,20.0,29.93,ENE,65,0.0,0.0,92,0.00,,,0.00,,2013-03-20 05:13:00,
2013-03-20 01:23:00,22.0,20.0,29.93,ENE,65,0.0,0.0,92,0.00,,,0.00,,2013-03-20 05:23:00,
2013-03-20 01:32:00,22.0,20.0,29.92,ESE,104,0.0,1.0,92,0.00,,,0.00,,2013-03-20 05:32:00,
2013-03-20 01:42:00,22.0,20.0,29.92,ESE,104,0.0,1.0,92,0.00,,,0.00,,2013-03-20 05:42:00,
2013-03-20 01:52:00,22.0,20.0,29.92,East,79,0.0,1.0,91,0.00,,,0.00,,2013-03-20 05:52:00,
2013-03-20 02:03:00,22.0,20.0,29.92,East,79,0.0,0.0,91,0.00,,,0.00,,2013-03-20 06:03:00,
2013-03-20 02:13:00,22.0,20.0,29.92,East,79,0.0,0.0,91,0.00,,,0.00,,2013-03-20 06:13:00,
2013-03-20 02:22:00,21.0,19.0,29.91,East,79,0.0,0.0,91,0.00,,,0.00,,2013-03-20 06:22:00,
2013-03-20 02:32:00,20.0,18.0,29.91,East,79,0.0,0.0,91,0.00,,,0.00,,2013-03-20 06:32:00,
2013-03-20 02:42:00,20.0,18.0,29.91,East,79,0.0,0.0,91,0.00,,,0.00,,2013-03-20 06:42:00,
2013-03-20 08:22:00,26.0,18.0,29.83,NW,305,2.0,8.0,72,0.00,,,0.00,,2013-03-20 12:22:00,
2013-03-20 08:33:00,27.0,19.0,29.83,NNW,335,2.0,10.0,71,0.00,,,0.00,,2013-03-20 12:33:00,
2013-03-20 08:42:00,27.0,19.0,29.83,NNW,335,2.0,10.0,71,0.00,,,0.00,,2013-03-20 12:42:00,
2013-03-20 08:52:00,27.0,19.0,29.83,NNW,335,2.0,10.0,71,0.00,,,0.00,,2013-03-20 12:52:00,
2013-03-20 09:03:00,27.0,19.0,29.84,WNW,302,4.0,9.0,71,0.00,,,0.00,,2013-03-20 13:03:00,
2013-03-20 09:12:00,27.0,19.0,29.84,WNW,302,4.0,9.0,71,0.00,,,0.00,,2013-03-20 13:12:00,
2013-03-20 09:22:00,28.0,20.0,29.84,West,266,2.0,6.0,71,0.00,,,0.00,,2013-03-20 13:22:00,
2013-03-20 09:32:00,28.0,20.0,29.84,WNW,295,3.0,7.0,71,0.00,,,0.00,,2013-03-20 13:32:00,
2013-03-20 09:42:00,28.0,20.0,29.84,WNW,295,3.0,7.0,71,0.00,,,0.00,,2013-03-20 13:42:00,
2013-03-20 09:52:00,28.0,20.0,29.85,South,176,2.0,22.0,70,0.00,,,0.00,,2013-03-20 13:52:00,
2013-03-20 10:03:00,28.0,19.0,29.85,WNW,290,6.0,19.0,68,0.00,,,0.00,,2013-03-20 14:03:00,
2013-03-20 10:12:00,28.0,19.0,29.85,WNW,290,6.0,19.0,68,0.00,,,0.00,,2013-03-20 14:12:00,
2013-03-20 10:23:00,28.0,19.0,29.84,WNW,282,2.0,15.0,69,0.00,,,0.00,,2013-03-20 14:23:00,
2013-03-20 10:34:00,29.0,18.0,29.83,NNW,327,6.0,17.0,64,0.00,,,0.00,,2013-03-20 14:34:00,
2013-03-20 10:42:00,29.0,18.0,29.83,NNW,327,6.0,17.0,64,0.00,,,0.00,,2013-03-20 14:42:00,
2013-03-20 10:52:00,29.0,18.0,29.83,NW,316,6.0,15.0,63,0.00,,,0.00,,2013-03-20 14:52:00,
2013-03-20 11:03:00,30.0,19.0,29.84,NNW,342,7.0,29.0,62,0.00,,,0.00,,2013-03-20 15:03:00,
2013-03-20 11:12:00,30.0,18.0,29.84,SW,232,12.0,24.0,60,0.00,,,0.00,,2013-03-20 15:12:00,
2013-03-20 11:22:00,30.0,18.0,29.84,SW,232,12.0,24.0,60,0.00,,,0.00,,2013-03-20 15:22:00,
2013-03-20 11:33:00,29.0,17.0,29.84,WNW,301,14.0,25.0,61,0.00,,,0.00,,2013-03-20 15:33:00,
2013-03-20 11:43:00,29.0,17.0,29.84,WNW,301,14.0,25.0,61,0.00,,,0.00,,2013-03-20 15:43:00,
2013-03-20 11:52:00,30.0,17.0,29.83,NNW,327,10.0,26.0,59,0.00,,,0.00,,2013-03-20 15:52:00,
2013-03-20 12:03:00,30.0,17.0,29.83,WNW,285,8.0,24.0,58,0.00,,,0.00,,2013-03-20 16:03:00,
2013-03-20 12:13:00,30.0,17.0,29.83,WNW,285,8.0,24.0,58,0.00,,,0.00,,2013-03-20 16:13:00,
2013-03-20 12:23:00,31.0,17.0,29.83,WNW,300,7.0,20.0,56,0.00,,,0.00,,2013-03-20 16:23:00,
2013-03-20 12:33:00,31.0,17.0,29.83,NW,305,10.0,27.0,56,0.00,,,0.00,,2013-03-20 16:33:00,
2013-03-20 12:43:00,31.0,17.0,29.83,NW,305,10.0,27.0,56,0.00,,,0.00,,2013-03-20 16:43:00,
2013-03-20 12:52:00,32.0,18.0,29.83,SW,232,10.0,19.0,56,0.00,,,0.00,,2013-03-20 16:52:00,
2013-03-20 13:03:00,32.0,18.0,29.83,NNE,16,5.0,22.0,56,0.00,,,0.00,,2013-03-20 17:03:00,
2013-03-20 13:12:00,32.0,18.0,29.83,NNE,16,5.0,22.0,56,0.00,,,0.00,,2013-03-20 17:12:00,
2013-03-20 13:22:00,32.0,17.0,29.84,WNW,297,9.0,24.0,54,0.00,,,0.00,,2013-03-20 17:22:00,
2013-03-20 13:32:00,30.0,15.0,29.84,WNW,298,11.0,23.0,54,0.00,,,0.00,,2013-03-20 17:32:00,
2013-03-20 13:42:00,30.0,15.0,29.84,WNW,298,11.0,23.0,54,0.00,,,0.00,,2013-03-20 17:42:00,
2013-03-20 13:52:00,31.0,16.0,29.83,SSW,195,5.0,19.0,54,0.00,,,0.00,,2013-03-20 17:52:00,
2013-03-20 14:02:00,32.0,16.0,29.83,NNW,328,4.0,16.0,52,0.00,,,0.00,,2013-03-20 18:02:00,
2013-03-20 14:12:00,32.0,16.0,29.83,NNW,328,4.0,16.0,52,0.00,,,0.00,,2013-03-20 18:12:00,
2013-03-20 14:22:00,33.0,17.0,29.83,NW,319,6.0,23.0,52,0.00,,,0.00,,2013-03-20 18:22:00,
2013-03-20 14:34:00,34.0,18.0,29.83,North,11,5.0,14.0,51,0.00,,,0.00,,2013-03-20 18:34:00,
2013-03-20 14:43:00,34.0,18.0,29.83,North,11,5.0,14.0,51,0.00,,,0.00,,2013-03-20 18:43:00,
2013-03-20 15:02:00,35.0,18.0,29.83,West,263,5.0,16.0,49,0.00,,,0.00,,2013-03-20 19:02:00,
2013-03-20 15:12:00,35.0,18.0,29.83,West,263,5.0,16.0,49,0.00,,,0.00,,2013-03-20 19:12:00,
2013-03-20 15:22:00,34.0,18.0,29.83,North,10,8.0,17.0,52,0.00,,,0.00,,2013-03-20 19:22:00,
2013-03-20 15:32:00,34.0,17.0,29.83,WNW,301,9.0,21.0,49,0.01,,,0.01,,2013-03-20 19:32:00,
2013-03-20 15:42:00,34.0,17.0,29.83,WNW,301,9.0,21.0,49,0.01,,,0.01,,2013-03-20 19:42:00,
2013-03-20 15:52:00,34.0,15.0,29.83,NNW,335,8.0,19.0,46,0.02,,,0.02,,2013-03-20 19:52:00,
2013-03-20 16:02:00,34.0,18.0,29.83,NW,319,3.0,15.0,51,0.02,,,0.02,,2013-03-20 20:02:00,
2013-03-20 16:13:00,34.0,18.0,29.83,NW,319,3.0,15.0,51,0.02,,,0.02,,2013-03-20 20:13:00,
2013-03-20 16:22:00,34.0,18.0,29.83,NW,308,2.0,7.0,52,0.02,,,0.02,,2013-03-20 20:22:00,
2013-03-20 16:32:00,33.0,18.0,29.83,WSW,250,4.0,13.0,54,0.02,,,0.03,,2013-03-20 20:32:00,
2013-03-20 16:42:00,33.0,18.0,29.83,WSW,250,4.0,13.0,54,0.02,,,0.03,,2013-03-20 20:42:00,
2013-03-20 16:52:00,32.0,19.0,29.83,NW,319,2.0,11.0,59,0.01,,,0.03,,2013-03-20 20:52:00,
2013-03-20 17:02:00,32.0,21.0,29.83,NNW,331,4.0,16.0,64,0.02,,,0.04,,2013-03-20 21:02:00,
2013-03-20 17:12:00,32.0,21.0,29.83,NNW,331,4.0,16.0,64,0.02,,,0.04,,2013-03-20 21:12:00,
2013-03-20 17:22:00,32.0,21.0,29.83,WNW,285,3.0,8.0,64,0.02,,,0.04,,2013-03-20 21:22:00,
2013-03-20 17:33:00,32.0,23.0,29.83,NW,321,0.0,7.0,68,0.01,,,0.04,,2013-03-20 21:33:00,
2013-03-20 17:42:00,32.0,23.0,29.83,NW,321,0.0,7.0,68,0.01,,,0.04,,2013-03-20 21:42:00,
2013-03-20 17:52:00,32.0,22.0,29.83,NE,50,1.0,2.0,66,0.01,,,0.04,,2013-03-20 21:52:00,
2013-03-20 18:03:00,32.0,21.0,29.83,North,350,0.0,1.0,64,0.00,,,0.04,,2013-03-20 22:03:00,
2013-03-20 18:13:00,32.0,21.0,29.83,North,350,0.0,1.0,64,0.00,,,0.04,,2013-03-20 22:13:00,
2013-03-20 18:23:00,32.0,22.0,29.84,South,186,2.0,7.0,66,0.00,,,0.04,,2013-03-20 22:23:00,
2013-03-20 18:33:00,31.0,22.0,29.84,East,88,2.0,6.0,70,0.00,,,0.04,,2013-03-20 22:33:00,
2013-03-20 18:42:00,31.0,22.0,29.84,East,88,2.0,6.0,70,0.00,,,0.04,,2013-03-20 22:42:00,
2013-03-20 18:52:00,31.0,24.0,29.85,SE,135,2.0,5.0,74,0.00,,,0.04,,2013-03-20 22:52:00,
2013-03-20 19:03:00,30.0,26.0,29.86,SSE,156,0.0,3.0,84,0.00,,,0.04,,2013-03-20 23:03:00,
2013-03-20 19:12:00,30.0,26.0,29.86,SSE,156,0.0,3.0,84,0.00,,,0.04,,2013-03-20 23:12:00,
2013-03-20 19:23:00,29.0,25.0,29.85,ESE,103,0.0,2.0,86,0.00,,,0.04,,2013-03-20 23:23:00,
2013-03-20 19:32:00,29.0,26.0,29.86,WNW,299,0.0,1.0,87,0.00,,,0.04,,2013-03-20 23:32:00,
2013-03-20 19:42:00,29.0,26.0,29.86,WNW,299,0.0,1.0,87,0.00,,,0.04,,2013-03-20 23:42:00,
2013-03-20 19:52:00,29.0,25.0,29.87,WSW,256,0.0,3.0,86,0.00,,,0.04,,2013-03-20 23:52:00,
2013-03-20 20:03:00,29.0,26.0,29.88,SSW,207,1.0,4.0,87,0.00,,,0.04,,2013-03-21 00:03:00,
2013-03-20 20:13:00,29.0,26.0,29.88,SSW,207,1.0,4.0,87,0.00,,,0.04,,2013-03-21 00:13:00,
2013-03-20 20:23:00,29.0,26.0,29.88,SE,143,0.0,7.0,89,0.00,,,0.04,,2013-03-21 00:23:00,
2013-03-20 20:33:00,28.0,25.0,29.88,WSW,251,1.0,3.0,90,0.00,,,0.04,,2013-03-21 00:33:00,
2013-03-20 20:42:00,28.0,25.0,29.88,WSW,251,1.0,3.0,90,0.00,,,0.04,,2013-03-21 00:42:00,
2013-03-20 20:52:00,28.0,26.0,29.89,WSW,239,2.0,5.0,91,0.00,,,0.04,,2013-03-21 00:52:00,
2013-03-20 21:02:00,28.0,26.0,29.90,NW,321,2.0,12.0,91,0.00,,,0.04,,2013-03-21 01:02:00,
2013-03-20 21:12:00,28.0,26.0,29.90,NW,321,2.0,12.0,91,0.00,,,0.04,,2013-03-21 01:12:00,
2013-03-20 21:22:00,28.0,26.0,29.90,ESE,122,0.0,2.0,92,0.00,,,0.04,,2013-03-21 01:22:00,
2013-03-20 21:33:00,28.0,26.0,29.90,WSW,250,2.0,6.0,92,0.00,,,0.04,,2013-03-21 01:33:00,
2013-03-20 21:42:00,28.0,26.0,29.90,WSW,250,2.0,6.0,92,0.00,,,0.04,,2013-03-21 01:42:00,
2013-03-20 21:52:00,28.0,25.0,29.90,SSW,212,3.0,6.0,90,0.00,,,0.04,,2013-03-21 01:52:00,
2013-03-20 22:03:00,28.0,23.0,29.90,WSW,240,1.0,17.0,81,0.00,,,0.04,,2013-03-21 02:03:00,
2013-03-20 22:13:00,28.0,23.0,29.90,WSW,240,1.0,17.0,81,0.00,,,0.04,,2013-03-21 02:13:00,
2013-03-20 22:22:00,28.0,21.0,29.90,South,190,3.0,5.0,74,0.00,,,0.04,,2013-03-21 02:22:00,
2013-03-20 22:33:00,28.0,20.0,29.90,South,172,4.0,8.0,73,0.00,,,0.04,,2013-03-21 02:33:00,
2013-03-20 22:42:00,28.0,20.0,29.90,South,172,4.0,8.0,73,0.00,,,0.04,,2013-03-21 02:42:00,
2013-03-20 22:52:00,28.0,20.0,29.90,South,172,4.0,8.0,73,0.00,,,0.04,,2013-03-21 02:52:00,
2013-03-20 23:02:00,28.0,18.0,29.90,SSE,154,0.0,5.0,67,0.00,,,0.04,,2013-03-21 03:02:00,
2013-03-20 23:12:00,28.0,18.0,29.90,SSE,154,0.0,5.0,67,0.00,,,0.04,,2013-03-21 03:12:00,
2013-03-20 23:22:00,27.0,17.0,29.90,ESE,103,1.0,6.0,65,0.00,,,0.04,,2013-03-21 03:22:00,
2013-03-20 23:33:00,27.0,16.0,29.91,SW,232,2.0,7.0,64,0.00,,,0.04,,2013-03-21 03:33:00,
2013-03-20 23:43:00,27.0,16.0,29.91,SW,232,2.0,7.0,64,0.00,,,0.04,,2013-03-21 03:43:00,
2013-03-20 23:53:00,27.0,17.0,29.91,WNW,290,0.0,5.0,65,0.00,,,0.04,,2013-03-21 03:53:00,